[[{"header":{"parameterUnit":"m.s-1","parameterCategory":1,"la1":30.2991,"la2":30.254,"lo1":-89.0895,"lo2":-89.0444,"dy":0.0017,"dx":0.0017,"nx":28,"ny":28,"refTime":"2024-04-25T09:00:00:Z","depth":0,"parameterNumber":2,"parameterNumberName":"U-component_of_WINDS"},"data":[0,0,0,0,0,0,0,0,0,0,0,0,0,0,0,0,0,0,0,0,0,0,0,0,0,0,0,0,0,0,0,0,0,0,0,0,0,0,0,0,0,0,0,0,0,0,0,0,0,0,0,0,0,0,0,0,0,0,-1.1874,-1.1874,0,-1.1819,-1.1819,-1.1818,-1.1787,-1.1786,-1.1786,-1.1786,-1.1727,-1.1726,-1.1724,0,0,0,0,0,0,0,0,0,0,0,0,0,-1.195,-1.1949,-1.1874,-1.1874,-1.1873,-1.182,-1.1819,-1.1818,-1.1787,-1.1786,-1.1786,-1.1786,-1.1727,-1.1726,-1.1724,0,0,0,0,0,0,0,0,0,0,0,0,0,-1.1909,-1.1949,-1.1874,-1.1851,-1.1848,-1.182,-1.1819,-1.1818,-1.1787,-1.1786,-1.1786,-1.1786,-1.1728,-1.1726,-1.1724,-1.1713,0,0,-1.1717,-1.1716,0,0,0,0,0,0,0,0,-1.1911,-1.1906,-1.1855,-1.1852,-1.1849,-1.181,-1.1824,-1.1783,-1.1787,-1.181,-1.1786,-1.1786,-1.1754,-1.175,-1.174,-1.1711,-1.1708,-1.1717,-1.1715,-1.1714,-1.1714,0,0,0,0,0,0,0,-1.1914,-1.1908,-1.1852,-1.1854,-1.1851,-1.1843,-1.1837,-1.1816,-1.1784,-1.1808,-1.1805,-1.18,-1.1753,-1.1742,-1.1738,-1.1707,-1.1717,-1.1715,-1.1714,-1.1713,-1.1668,-1.1669,0,0,0,0,0,0,-1.1921,-1.1911,-1.1854,-1.1851,-1.1881,-1.1841,-1.1835,-1.1823,-1.1784,-1.1778,-1.18,-1.1798,-1.1746,-1.1741,-1.1736,-1.1723,-1.1715,-1.1712,-1.1711,-1.1668,-1.1669,-1.1669,0,0,0,0,0,0,-1.1923,-1.1916,-1.1856,-1.188,-1.1872,-1.184,-1.1827,-1.1822,-1.1811,-1.1778,-1.1772,-1.1795,-1.1746,-1.1739,-1.172,-1.172,-1.1711,-1.1709,-1.1668,-1.1668,-1.1669,-1.1695,0,0,0,0,0,0,-1.1925,-1.1917,-1.1913,-1.188,-1.1871,-1.1841,-1.1827,-1.1821,-1.1808,-1.1805,-1.1772,-1.1766,-1.1745,-1.1723,-1.1718,-1.1717,-1.1708,-1.1668,-1.1668,-1.1669,-1.1694,-1.1696,-1.1698,0,0,0,0,0,-1.1928,-1.1921,-1.1913,-1.1906,-1.1865,-1.1842,-1.1836,-1.1813,-1.1808,-1.1803,-1.1782,-1.1767,-1.1721,-1.1722,-1.1715,-1.1713,-1.1668,-1.1668,-1.1669,-1.1693,-1.1695,-1.1698,0,0,0,0,0,0,-1.1953,-1.1917,-1.1907,-1.189,-1.1869,-1.1836,-1.183,-1.1816,-1.1796,-1.1795,-1.1766,-1.1759,-1.1743,-1.1726,-1.1727,-1.1702,-1.1693,-1.1692,-1.1714,-1.1716,-1.1718,-1.1722,-1.1706,0,0,0,0,0,-1.1957,-1.1942,-1.191,-1.1898,-1.1889,-1.1861,-1.185,-1.1835,-1.1812,-1.1803,-1.178,-1.1758,-1.1739,-1.1726,-1.1707,-1.1692,-1.1684,-1.1687,-1.1689,-1.1691,-1.169,-1.1683,-1.1684,-1.167,-1.167,-1.167,0,0,-1.1964,-1.1942,-1.1934,-1.1903,-1.1885,-1.187,-1.1854,-1.1838,-1.1826,-1.18,-1.1781,-1.1764,-1.1737,-1.172,-1.1712,-1.1706,-1.1693,-1.1692,-1.1693,-1.1691,-1.1683,-1.1684,-1.1686,-1.167,-1.167,-1.167,0,0,-1.1969,-1.1951,-1.194,-1.1923,-1.1897,-1.188,-1.1877,-1.1847,-1.1835,-1.1816,-1.1796,-1.1782,-1.1749,-1.1731,-1.1718,-1.172,-1.1705,-1.1714,-1.1724,-1.1717,-1.1718,-1.1719,-1.172,-1.1721,-1.1714,-1.1714,-1.1714,0,-1.1981,-1.1958,-1.1935,-1.1921,-1.1908,-1.1886,-1.1874,-1.1859,-1.1827,-1.1819,-1.1814,-1.1774,-1.1754,-1.1733,-1.1734,-1.1724,-1.172,-1.1717,-1.172,-1.172,-1.1721,-1.1722,-1.1722,-1.1715,-1.1715,-1.1715,-1.1715,0,-1.1974,-1.1958,-1.1952,-1.1924,-1.1911,-1.1897,-1.1873,-1.1862,-1.1849,-1.1832,-1.1813,-1.179,-1.1766,-1.176,-1.1745,-1.1738,-1.1735,-1.1725,-1.1715,-1.1724,-1.1724,-1.1724,-1.1717,-1.1717,-1.1716,-1.1716,0,0,-1.1991,-1.1953,-1.1951,-1.1939,-1.191,-1.1897,-1.1884,-1.1862,-1.1854,-1.1833,-1.1822,-1.1796,-1.1787,-1.1772,-1.1756,-1.175,-1.1754,-1.1741,-1.174,-1.1744,-1.1745,-1.1752,-1.1753,-1.1745,-1.1745,-1.1745,-1.1747,0,-1.1992,-1.1968,-1.1949,-1.1931,-1.1917,-1.1897,-1.1885,-1.1866,-1.1851,-1.1836,-1.1818,-1.1801,-1.179,-1.1781,-1.1774,-1.1755,-1.1754,-1.1755,-1.1733,-1.1733,-1.174,-1.1753,-1.176,-1.1764,-1.1747,-1.1747,-1.1747,0,-1.1989,-1.1972,-1.1954,-1.1928,-1.1921,-1.1911,-1.1891,-1.1877,-1.1856,-1.1845,-1.183,-1.1814,-1.1799,-1.1792,-1.1771,-1.1772,-1.1763,-1.1752,-1.1752,-1.1748,-1.174,-1.175,-1.1764,-1.1765,-1.1747,-1.1747,-1.1747,0,-1.2005,-1.1976,-1.1962,-1.1952,-1.1922,-1.1916,-1.1903,-1.1881,-1.187,-1.1852,-1.1844,-1.1825,-1.1813,-1.1798,-1.1778,-1.1774,-1.176,-1.175,-1.175,-1.1751,-1.1747,-1.1747,-1.176,-1.1742,-1.1742,-1.1742,-1.1742,0,-1.2008,-1.1997,-1.1969,-1.196,-1.1948,-1.1927,-1.1916,-1.1901,-1.1883,-1.1871,-1.1852,-1.1841,-1.1814,-1.1801,-1.1784,-1.177,-1.1765,-1.1756,-1.1752,-1.1758,-1.1759,-1.175,-1.1749,-1.1742,-1.1742,-1.1742,-1.1742,0,-1.2022,-1.2002,-1.1986,-1.1959,-1.1953,-1.1945,-1.1922,-1.1913,-1.1898,-1.1883,-1.1878,-1.1854,-1.1836,-1.1815,-1.179,-1.1779,-1.1767,-1.1761,-1.1775,-1.1772,-1.1774,-1.1774,-1.1781,-1.1781,-1.1763,-1.1763,-1.1764,0,-1.2024,-1.2016,-1.199,-1.1981,-1.1969,-1.1955,-1.1944,-1.1924,-1.1913,-1.1889,-1.1883,-1.1865,-1.1849,-1.1823,-1.1803,-1.1784,-1.1777,-1.1781,-1.1774,-1.1781,-1.1777,-1.1778,-1.1777,-1.1782,-1.1783,-1.1783,-1.1783,0,-1.2032,-1.2023,-1.2008,-1.1991,-1.1979,-1.1964,-1.1948,-1.1942,-1.1918,-1.1907,-1.189,-1.1878,-1.1854,-1.1837,-1.1816,-1.1803,-1.1789,-1.1786,-1.1785,-1.179,-1.1799,-1.1795,-1.178,-1.1785,-1.1785,-1.1785,-1.1785,-1.1785,-1.204,-1.2033,-1.2014,-1.1998,-1.1985,-1.1971,-1.1962,-1.1946,-1.1932,-1.1912,-1.19,-1.1884,-1.1865,-1.1836,-1.1823,-1.181,-1.1805,-1.1803,-1.1803,-1.1803,-1.1805,-1.1802,-1.1806,-1.1806,-1.1806,-1.1806,-1.1806,0,-1.2047,-1.2034,-1.202,-1.2,-1.1988,-1.1978,-1.1961,-1.1951,-1.1938,-1.1921,-1.1907,-1.1888,-1.1872,-1.1851,-1.1834,-1.1827,-1.1821,-1.1823,-1.1823,-1.182,-1.1811,-1.1813,-1.1829,-1.1829,-1.1829,-1.1829,-1.1829,-1.1829,-1.2049,-1.2036,-1.2025,-1.2006,-1.1993,-1.1978,-1.1969,-1.1957,-1.1944,-1.1924,-1.1911,-1.1898,-1.188,-1.1862,-1.1846,-1.1841,-1.1835,-1.184,-1.1832,-1.1823,-1.1821,-1.1819,-1.1821,-1.1839,-1.1839,-1.1843,-1.1843,-1.1843]},{"header":{"parameterUnit":"m.s-1","parameterCategory":1,"la1":30.2991,"la2":30.254,"lo1":-89.0895,"lo2":-89.0444,"dy":0.0017,"dx":0.0017,"nx":28,"ny":28,"refTime":"2024-04-25T09:00:00:Z","depth":0,"parameterNumber":3,"parameterNumberName":"V-component_of_WINDS"},"data":[0,0,0,0,0,0,0,0,0,0,0,0,0,0,0,0,0,0,0,0,0,0,0,0,0,0,0,0,0,0,0,0,0,0,0,0,0,0,0,0,0,0,0,0,0,0,0,0,0,0,0,0,0,0,0,0,0,0,2.8775,2.8774,0,2.8736,2.8735,2.8735,2.8756,2.8757,2.8758,2.8759,2.8712,2.871,2.8708,0,0,0,0,0,0,0,0,0,0,0,0,0,2.8862,2.886,2.8775,2.8774,2.8774,2.8736,2.8735,2.8735,2.8755,2.8757,2.8758,2.8759,2.8713,2.871,2.8708,0,0,0,0,0,0,0,0,0,0,0,0,0,2.8823,2.886,2.8775,2.878,2.878,2.8736,2.8735,2.8734,2.8755,2.8757,2.8758,2.876,2.8714,2.871,2.8707,2.8654,0,0,2.8697,2.8695,0,0,0,0,0,0,0,0,2.8826,2.882,2.8779,2.8779,2.8779,2.8752,2.8749,2.8707,2.8755,2.8764,2.8759,2.8761,2.8724,2.872,2.8709,2.8652,2.865,2.8697,2.8695,2.8693,2.8692,0,0,0,0,0,0,0,2.8828,2.8822,2.8759,2.8779,2.8779,2.8782,2.8778,2.8741,2.8735,2.8764,2.8765,2.8761,2.8724,2.8712,2.8708,2.8649,2.8697,2.8694,2.8692,2.869,2.8547,2.8546,0,0,0,0,0,0,2.8832,2.8824,2.876,2.8758,2.8807,2.8779,2.8775,2.8759,2.8736,2.8734,2.8759,2.8762,2.8717,2.8712,2.8706,2.8642,2.8693,2.869,2.8688,2.8549,2.8547,2.8545,0,0,0,0,0,0,2.8833,2.8826,2.8762,2.8791,2.8784,2.8776,2.8758,2.8758,2.8745,2.8733,2.8731,2.8748,2.8718,2.8711,2.8667,2.8641,2.8688,2.8685,2.8551,2.8548,2.8546,2.8515,0,0,0,0,0,0,2.8836,2.8826,2.8807,2.8791,2.8782,2.8725,2.8756,2.8756,2.874,2.8743,2.8722,2.872,2.8719,2.8672,2.8664,2.8637,2.8683,2.8553,2.855,2.8547,2.8518,2.8511,2.8505,0,0,0,0,0,2.8839,2.8798,2.8806,2.8798,2.8758,2.8724,2.8718,2.872,2.8738,2.8718,2.871,2.872,2.8646,2.8668,2.8659,2.863,2.8555,2.8551,2.8547,2.8521,2.8513,2.8506,0,0,0,0,0,0,2.8808,2.8796,2.8804,2.8757,2.8742,2.8727,2.8702,2.8711,2.8688,2.8691,2.8692,2.8687,2.8642,2.8632,2.8657,2.8578,2.8603,2.8597,2.8586,2.8578,2.8572,2.8575,2.868,0,0,0,0,0,2.8796,2.8771,2.8761,2.8721,2.8713,2.8709,2.8694,2.8697,2.8679,2.8672,2.8661,2.8642,2.8615,2.8596,2.857,2.8517,2.8513,2.8493,2.8487,2.8482,2.8476,2.8448,2.8439,2.8532,2.8532,2.8532,0,0,2.877,2.8761,2.8744,2.8714,2.8702,2.8675,2.8703,2.8672,2.8651,2.8667,2.8626,2.8617,2.8596,2.8548,2.8526,2.8538,2.845,2.8477,2.8473,2.847,2.8443,2.8434,2.8427,2.8529,2.853,2.853,0,0,2.871,2.87,2.8666,2.8655,2.8637,2.8635,2.8627,2.8612,2.8607,2.8567,2.8578,2.8553,2.8505,2.849,2.8476,2.8413,2.8421,2.8404,2.8371,2.8343,2.8336,2.8329,2.8306,2.8298,2.8399,2.8399,2.8399,0,2.8679,2.864,2.8646,2.8616,2.8602,2.8618,2.8583,2.857,2.8544,2.8534,2.8548,2.849,2.8477,2.8426,2.8411,2.8399,2.8389,2.8406,2.8337,2.833,2.8324,2.8302,2.8293,2.8397,2.8397,2.8397,2.8397,0,2.8603,2.8576,2.855,2.8528,2.8512,2.8478,2.8478,2.846,2.8466,2.8462,2.842,2.8406,2.8377,2.8366,2.8369,2.8315,2.8323,2.8337,2.8362,2.8313,2.8293,2.8284,2.8394,2.8394,2.8395,2.8396,0,0,2.8519,2.8504,2.8494,2.8484,2.8468,2.8446,2.8414,2.8389,2.8373,2.8355,2.8327,2.8288,2.8302,2.8286,2.8288,2.8264,2.8214,2.8281,2.8281,2.8269,2.8154,2.8143,2.8133,2.8221,2.8219,2.8218,2.8155,0,2.8457,2.8403,2.8409,2.8356,2.8331,2.8347,2.8319,2.8305,2.8301,2.8278,2.8272,2.8245,2.8265,2.8256,2.8233,2.8225,2.8191,2.823,2.8193,2.8192,2.8197,2.8122,2.811,2.8051,2.8147,2.8146,2.8145,0,2.8377,2.8359,2.8305,2.8294,2.8283,2.8258,2.8236,2.8215,2.8199,2.8198,2.8182,2.8188,2.8155,2.8182,2.8135,2.8161,2.8147,2.8141,2.8139,2.8134,2.8164,2.8114,2.8032,2.8023,2.8132,2.8133,2.8134,0,2.832,2.8283,2.8246,2.8238,2.8224,2.8206,2.8198,2.8185,2.817,2.815,2.8141,2.8116,2.8103,2.8083,2.8083,2.8103,2.8035,2.8062,2.8032,2.8032,2.8015,2.8016,2.7929,2.8008,2.8008,2.8008,2.8008,0,2.8249,2.8215,2.8221,2.8198,2.816,2.8167,2.8129,2.8124,2.8112,2.8087,2.8099,2.8075,2.8077,2.8053,2.8052,2.8013,2.8007,2.8004,2.8004,2.8002,2.8003,2.7992,2.7995,2.8006,2.8006,2.8007,2.8007,0,2.8179,2.8181,2.8142,2.8134,2.8131,2.8103,2.8095,2.8073,2.8071,2.804,2.8033,2.8029,2.8001,2.8,2.7967,2.7967,2.7919,2.7924,2.7925,2.7925,2.7895,2.7897,2.7796,2.7783,2.7872,2.7871,2.787,0,2.8133,2.8107,2.8097,2.8083,2.8076,2.8052,2.8038,2.8044,2.8028,2.801,2.7989,2.7963,2.7943,2.7897,2.789,2.7865,2.7869,2.7836,2.7865,2.7865,2.7868,2.7869,2.7866,2.7829,2.7828,2.7827,2.7827,0,2.805,2.8054,2.8034,2.8015,2.7998,2.7983,2.7968,2.7956,2.796,2.7941,2.7915,2.7899,2.7867,2.7841,2.7817,2.7808,2.7817,2.7818,2.781,2.7807,2.7808,2.7807,2.7908,2.782,2.782,2.7821,2.7821,2.7822,2.799,2.7969,2.7959,2.7937,2.7928,2.7914,2.7894,2.7891,2.7869,2.7845,2.785,2.782,2.7806,2.7775,2.7765,2.774,2.7752,2.7739,2.7736,2.7732,2.7729,2.7814,2.7736,2.7736,2.7736,2.7737,2.7737,0,2.7908,2.7903,2.7883,2.7864,2.7847,2.7861,2.7846,2.783,2.7804,2.7792,2.7772,2.7741,2.7717,2.7709,2.7685,2.7667,2.767,2.766,2.766,2.7658,2.7721,2.773,2.7657,2.7657,2.7657,2.7657,2.7657,2.7657,2.7863,2.7828,2.7831,2.7791,2.7786,2.7759,2.7749,2.7737,2.7727,2.7693,2.7674,2.767,2.7659,2.7635,2.7612,2.761,2.76,2.7588,2.7588,2.7646,2.7654,2.7661,2.767,2.7586,2.7586,2.7527,2.7527,2.7526]}]]